FENGYUN 1C DEB

Satellite information

Favourite Embed

Satellite Type and Status

DEBRISIN ORBIT

Key statistics

Satellite FENGYUN 1C DEB at a glance.

Uptime

9493

Days in orbit

Revolutions

≈ 14.3

Per day

Orbit

SSO

Sun Synchronous Orbit

Inclination

99.1

Latest

Satellite identification and parameters

Extended collection of information and parameters for FENGYUN 1C DEB.

Object identification

Identified? True

Debris? True

Object name: FENGYUN 1C DEB

International designator: 1999-025AWJ

Object number (NORAD): 30848

Object ID (CCSDS): 30848

Country: PEOPLES REPUBLIC OF CHINA (PRC)

Current information (Y/N): Y

RCS size: SMALL

Orbital parameters

Period: 100.496 minutes

Inclination: 99.0658 deg

SMA: 7160.236 km

Apoapsis: 813.318 km

Periapsis: 750.883 km

RAAN: 303.0406 deg

Eccentricy: 0.0043598

Argument of periapsis: 278.9834 deg

Mean anomaly: 80.6415 deg

Mean motion: 14.32886504 rev/day

Mean motion (dot): 0.00005103 rev/day2

B* drag term: 0.0018654 1/REarth

Two-line elements (TLE)

Creation date: May 2, 2025, 2:33 a.m.

Reference frame: TEME

Reference center: EARTH

Epoch: April 28, 2025, 11:24 p.m. UTC

TLE line 0: 0 FENGYUN 1C DEB

TLE line 1: 1 30848U 99025AWJ 25118.97540336 .00005103 00000-0 18654-2 0 9997

TLE line 2: 2 30848 99.0658 303.0406 0043598 278.9834 80.6415 14.32886504940433

Live tracking on map

Real-time ground track for satellite FENGYUN 1C DEB.

In-orbit conjunctions

A list of the most updated potential collisions computed for object FENGYUN 1C DEB.

Target Orbit TCA Probability of collision Miss distance Type
MICRO LABSAT SSO 2025-01-31 16:02:03 0.000165614 784.0 (m) PAYLOAD
FENGYUN 1C DEB SSO 2024-11-14 11:17:27 0.0003259293 162.0 (m) DEBRIS
FENGYUN 1C DEB SSO 2024-10-07 12:55:10 0.0001007558 50.0 (m) DEBRIS
COSMOS 1275 DEB LEO 2024-09-26 11:48:15 0.0002914454 633.0 (m) DEBRIS

Associated space launch

Chinese polar orbiting meteorological satellite

FENGYUN 1C DEB was lifted into orbit during the mission ‘Long March 4B | Feng Yun 1C’, on board a Long March 4B space rocket.

The launch took place on May 10, 1999, 1:33 a.m. from Launch Complex 7.

For more information about the launch, click the button.

Launch to space Long March 4B | Feng Yun 1C
Long March 4B | Feng Yun 1C

Agency: N/A

Status: Launch Successful

Launch date: May 10, 1999, 1:33 a.m. UTC

Rocket: Long March 4B

Launch pad: Launch Complex 7

Location: Taiyuan Satellite Launch Center, People's Republic of China

...

Latest news about this satellite

There are no fresh news available about this satellite. Check back as we update our databases every day.


Newsletter sign-up

Weekly statistics, charts and insights to help you stay on top of the space industry.